Simultaneous Nadir Overpasses (SNOs) Predictions

Prediction of SNOs between LANDSAT-8 and NOAA-19 Satellite Orbit:

Table of predicted SNOs for the next 14.0 days since TLE Epoch: 2/6/2021
Index Date (LANDSAT-8) Time (LANDSAT-8) Lat,Lon (LANDSAT-8) SZA (LANDSAT-8 ) Date (NOAA-19) Time (NOAA-19) Lat,Lon (NOAA-19) SZA (NOAA-19 ) Distance(km) Time Diff (sec)
1 02/06/2021 06:30:16 -80.21, -68.30 83.38 02/06/2021 06:29:42 -80.22, -68.41 83.39 2.44 34
2 02/06/2021 07:19:43 80.18, 99.10 96.57 02/06/2021 07:20:46 80.20, 99.11 96.61 2.14 63
3 02/08/2021 12:03:59 80.22, 28.34 95.94 02/08/2021 12:02:59 80.22, 28.39 95.92 0.94 60
4 02/08/2021 12:53:26 -80.21,-164.04 84.08 02/08/2021 12:53:54 -80.20,-164.03 84.09 1.94 28
5 02/10/2021 18:27:09 80.22, -67.43 95.21 02/10/2021 18:27:11 80.20, -67.37 95.20 1.95 2
6 02/13/2021 00:00:53 -80.22, 29.14 85.54 02/13/2021 00:00:21 -80.22, 29.11 85.54 0.69 32
7 02/13/2021 00:50:20 80.19,-163.51 94.41 02/13/2021 00:51:24 80.21,-163.48 94.45 3.04 64
8 02/15/2021 05:34:36 80.22, 125.69 93.71 02/15/2021 05:33:37 80.23, 125.75 93.71 2.05 59
9 02/15/2021 06:24:03 -80.22, -66.65 86.30 02/15/2021 06:24:33 -80.20, -66.51 86.30 3.31 30
10 02/17/2021 11:57:46 80.21, 29.88 92.92 02/17/2021 11:57:49 80.22, 29.94 92.94 1.53 3
11 02/19/2021 17:31:29 -80.25, 126.74 87.82 02/19/2021 17:31:00 -80.23, 126.62 87.85 3.05 29



Historial Predications of SNOs between LANDSAT-8 and NOAA-19
